Location: Beuvrequen
(50.8014°N, 1.6652°E)
Time: 04:06:06
(UTC+00:00)

Okean O Rocket - Pass Details

Date: 16 October 2021
Orbit: 623 x 643 km, 98.2° (Epoch: 05 December)

Event Time Altitude Azimuth Distance (km) Brightness Sun altitude
Rises 17:56:53 0° 165° (SSE) 2,893 4.9 -9.9°
Reaches altitude 10° 17:59:03 10° 166° (SSE) 1,991 4.0 -10.3°
Maximum altitude 18:03:24 86° 254° (WSW) 634 1.6 -11.0°
Drops below altitude 10° 18:07:47 10° 345° (NNW) 2,012 4.4 -11.7°
Sets 18:09:59 0° 346° (NNW) 2,926 5.2 -12.0°
